This is the latest recevied weather packets stored in our database for station/object KB0BDN-13. If no packets are shown the sender has not sent any weather packets the latest 10 day(s).
| Time | Temp. | Humidity | Pressure | Rain* | Wind** | Luminosity | Snow |
|---|---|---|---|---|---|---|---|
| 1778096823 | 2.78° C | 67% | 1006.5 hPa | 0 mm | - | - | - |
| 1778095923 | 2.22° C | 65% | 1006.6 hPa | 0 mm | - | - | - |
| 1778095023 | 2.22° C | 65% | 1006.5 hPa | 0 mm | - | - | - |
| 1778094123 | 2.22° C | 67% | 1006.5 hPa | 0 mm | - | - | - |
| 1778093223 | 1.67° C | 67% | 1006.7 hPa | 0 mm | - | - | - |
| 1778092323 | 2.22° C | 66% | 1006.6 hPa | 0 mm | - | - | - |
| 1778091423 | 2.22° C | 65% | 1006.6 hPa | 0.25 mm | - | - | - |
| 1778090523 | 2.22° C | 65% | 1006.7 hPa | 0.25 mm | - | - | - |
| 1778089623 | 2.22° C | 65% | 1006.7 hPa | 0.25 mm | - | - | - |
| 1778088723 | 1.67° C | 67% | 1006.8 hPa | 0.25 mm | - | - | - |
| 1778087823 | 1.67° C | 69% | 1006.8 hPa | 0.25 mm | - | - | - |
| 1778086923 | 1.11° C | 71% | 1007.1 hPa | 0 mm | - | - | - |
| 1778086023 | 1.67° C | 68% | 1007.1 hPa | 0 mm | - | - | - |
| 1778085123 | 1.67° C | 66% | 1007 hPa | 0 mm | - | - | - |
| 1778084223 | 1.11° C | 70% | 1007.1 hPa | 0 mm | - | - | - |
| 1778083323 | 0.56° C | 72% | 1007.2 hPa | 0 mm | - | - | - |
| 1778082423 | 0.56° C | 73% | 1007.2 hPa | 0 mm | - | - | - |
| 1778081523 | 0° C | 75% | 1007.1 hPa | 0 mm | - | - | - |
| 1778080623 | 0° C | 78% | 1007.1 hPa | 0 mm | - | - | - |
| 1778079723 | -0.56° C | 82% | 1007 hPa | 0 mm | - | - | - |
| 1778078823 | -1.11° C | 82% | 1007.1 hPa | 0 mm | - | - | - |
| 1778077923 | -1.11° C | 84% | 1007 hPa | 0 mm | - | - | - |
| 1778077023 | -1.67° C | 86% | 1006.9 hPa | 0 mm | - | - | - |
| 1778076127 | -1.67° C | 88% | 1006.9 hPa | 0 mm | - | - | - |
| 1778075226 | -2.22° C | 86% | 1006.8 hPa | 0 mm | - | - | - |
* Rain latest hour (hover to see other rain measurements)
** Current wind speed in m/s (hover to see current wind gust speed)